owner,sensor,date,latitude,longitude,sea_surface_height_above_sea_level,qcFlag 
COMPS,ioos:station:USF.COMPS:ARP:1,2011-02-01T00:00:00Z,28.4330,-82.6670,-0.279,1111122 
COMPS,ioos:station:USF.COMPS:ARP:1,2011-02-01T00:06:00Z,28.4330,-82.6670,-0.265,1111122 
COMPS,ioos:station:USF.COMPS:ARP:1,2011-02-01T00:12:00Z,28.4330,-82.6670,-0.252,1111122 
COMPS,ioos:station:USF.COMPS:ARP:1,2011-02-01T00:18:00Z,28.4330,-82.6670,-0.237,1111122 
COMPS,ioos:station:USF.COMPS:ARP:1,2011-02-01T00:24:00Z,28.4330,-82.6670,-0.223,1111122 
COMPS,ioos:station:USF.COMPS:ARP:1,2011-02-01T00:30:00Z,28.4330,-82.6670,-0.207,1111122 
COMPS,ioos:station:USF.COMPS:ARP:1,2011-02-01T00:36:00Z,28.4330,-82.6670,-0.191,1111122 
COMPS,ioos:station:USF.COMPS:ARP:1,2011-02-01T00:42:00Z,28.4330,-82.6670,-0.177,1111122 
COMPS,ioos:station:USF.COMPS:ARP:1,2011-02-01T00:48:00Z,28.4330,-82.6670,-0.163,1111122 
COMPS,ioos:station:USF.COMPS:ARP:1,2011-02-01T00:54:00Z,28.4330,-82.6670,-0.145,1111122 
COMPS,ioos:station:USF.COMPS:ARP:1,2011-02-01T01:00:00Z,28.4330,-82.6670,-0.131,1111122 
COMPS,ioos:station:USF.COMPS:ARP:1,2011-02-01T01:06:00Z,28.4330,-82.6670,-0.115,1111122 
COMPS,ioos:station:USF.COMPS:ARP:1,2011-02-01T01:12:00Z,28.4330,-82.6670,-0.096,1111122 
COMPS,ioos:station:USF.COMPS:ARP:1,2011-02-01T01:18:00Z,28.4330,-82.6670,-0.08,1111122 
COMPS,ioos:station:USF.COMPS:ARP:1,2011-02-01T01:24:00Z,28.4330,-82.6670,-0.062,1111122 
COMPS,ioos:station:USF.COMPS:ARP:1,2011-02-01T01:30:00Z,28.4330,-82.6670,-0.043,1111122 
COMPS,ioos:station:USF.COMPS:ARP:1,2011-02-01T01:36:00Z,28.4330,-82.6670,-0.022,1111122 
COMPS,ioos:station:USF.COMPS:ARP:1,2011-02-01T01:42:00Z,28.4330,-82.6670,-0.004,1111122 
COMPS,ioos:station:USF.COMPS:ARP:1,2011-02-01T01:48:00Z,28.4330,-82.6670,0.015,1111122 
COMPS,ioos:station:USF.COMPS:ARP:1,2011-02-01T01:54:00Z,28.4330,-82.6670,0.037,1111122 
COMPS,ioos:station:USF.COMPS:ARP:1,2011-02-01T02:00:00Z,28.4330,-82.6670,0.053,1111122 
COMPS,ioos:station:USF.COMPS:ARP:1,2011-02-01T02:06:00Z,28.4330,-82.6670,0.074,1111122 
COMPS,ioos:station:USF.COMPS:ARP:1,2011-02-01T02:12:00Z,28.4330,-82.6670,0.094,1111122 
COMPS,ioos:station:USF.COMPS:ARP:1,2011-02-01T02:18:00Z,28.4330,-82.6670,0.113,1111122 
COMPS,ioos:station:USF.COMPS:ARP:1,2011-02-01T02:24:00Z,28.4330,-82.6670,0.133,1111122 
COMPS,ioos:station:USF.COMPS:ARP:1,2011-02-01T02:30:00Z,28.4330,-82.6670,0.151,1111122 
COMPS,ioos:station:USF.COMPS:ARP:1,2011-02-01T02:36:00Z,28.4330,-82.6670,0.171,1111122 
COMPS,ioos:station:USF.COMPS:ARP:1,2011-02-01T02:42:00Z,28.4330,-82.6670,0.189,1111122 
COMPS,ioos:station:USF.COMPS:ARP:1,2011-02-01T02:48:00Z,28.4330,-82.6670,0.207,1111122 
COMPS,ioos:station:USF.COMPS:ARP:1,2011-02-01T02:54:00Z,28.4330,-82.6670,0.224,1111122 
COMPS,ioos:station:USF.COMPS:ARP:1,2011-02-01T03:00:00Z,28.4330,-82.6670,0.236,1111122 
COMPS,ioos:station:USF.COMPS:ARP:1,2011-02-01T03:06:00Z,28.4330,-82.6670,0.25,1111122 
COMPS,ioos:station:USF.COMPS:ARP:1,2011-02-01T03:12:00Z,28.4330,-82.6670,0.261,1111122 
COMPS,ioos:station:USF.COMPS:ARP:1,2011-02-01T03:18:00Z,28.4330,-82.6670,0.275,1111122 
COMPS,ioos:station:USF.COMPS:ARP:1,2011-02-01T03:24:00Z,28.4330,-82.6670,0.289,1111122 
COMPS,ioos:station:USF.COMPS:ARP:1,2011-02-01T03:30:00Z,28.4330,-82.6670,0.304,1111122 
COMPS,ioos:station:USF.COMPS:ARP:1,2011-02-01T03:36:00Z,28.4330,-82.6670,0.317,1111122 
COMPS,ioos:station:USF.COMPS:ARP:1,2011-02-01T03:42:00Z,28.4330,-82.6670,0.331,1111122 
COMPS,ioos:station:USF.COMPS:ARP:1,2011-02-01T03:48:00Z,28.4330,-82.6670,0.347,1111122 
COMPS,ioos:station:USF.COMPS:ARP:1,2011-02-01T03:54:00Z,28.4330,-82.6670,0.353,1111122 
COMPS,ioos:station:USF.COMPS:ARP:1,2011-02-01T04:00:00Z,28.4330,-82.6670,0.363,1111122 
COMPS,ioos:station:USF.COMPS:ARP:1,2011-02-01T04:06:00Z,28.4330,-82.6670,0.371,1111122 
COMPS,ioos:station:USF.COMPS:ARP:1,2011-02-01T04:12:00Z,28.4330,-82.6670,0.374,1111122 
COMPS,ioos:station:USF.COMPS:ARP:1,2011-02-01T04:18:00Z,28.4330,-82.6670,0.38,1111122 
COMPS,ioos:station:USF.COMPS:ARP:1,2011-02-01T04:24:00Z,28.4330,-82.6670,0.386,1111122 
COMPS,ioos:station:USF.COMPS:ARP:1,2011-02-01T04:30:00Z,28.4330,-82.6670,0.387,1111122 
COMPS,ioos:station:USF.COMPS:ARP:1,2011-02-01T04:36:00Z,28.4330,-82.6670,0.386,1111122 
COMPS,ioos:station:USF.COMPS:ARP:1,2011-02-01T04:42:00Z,28.4330,-82.6670,0.382,1111122 
COMPS,ioos:station:USF.COMPS:ARP:1,2011-02-01T04:48:00Z,28.4330,-82.6670,0.379,1111122 
COMPS,ioos:station:USF.COMPS:ARP:1,2011-02-01T04:54:00Z,28.4330,-82.6670,0.368,1111122 
COMPS,ioos:station:USF.COMPS:ARP:1,2011-02-01T05:00:00Z,28.4330,-82.6670,0.358,1111122 
COMPS,ioos:station:USF.COMPS:ARP:1,2011-02-01T05:06:00Z,28.4330,-82.6670,0.358,1111122 
COMPS,ioos:station:USF.COMPS:ARP:1,2011-02-01T05:12:00Z,28.4330,-82.6670,0.339,1111122 
COMPS,ioos:station:USF.COMPS:ARP:1,2011-02-01T05:18:00Z,28.4330,-82.6670,0.32,1111122 
COMPS,ioos:station:USF.COMPS:ARP:1,2011-02-01T05:24:00Z,28.4330,-82.6670,0.32,1111122 
COMPS,ioos:station:USF.COMPS:ARP:1,2011-02-01T05:30:00Z,28.4330,-82.6670,0.304,1111122 
COMPS,ioos:station:USF.COMPS:ARP:1,2011-02-01T05:36:00Z,28.4330,-82.6670,0.287,1111122 
COMPS,ioos:station:USF.COMPS:ARP:1,2011-02-01T05:42:00Z,28.4330,-82.6670,0.267,1111122 
COMPS,ioos:station:USF.COMPS:ARP:1,2011-02-01T05:48:00Z,28.4330,-82.6670,0.257,1111122 
COMPS,ioos:station:USF.COMPS:ARP:1,2011-02-01T05:54:00Z,28.4330,-82.6670,0.237,1111122 
COMPS,ioos:station:USF.COMPS:ARP:1,2011-02-01T06:00:00Z,28.4330,-82.6670,0.224,1111122 
COMPS,ioos:station:USF.COMPS:ARP:1,2011-02-01T06:06:00Z,28.4330,-82.6670,0.214,1111122 
COMPS,ioos:station:USF.COMPS:ARP:1,2011-02-01T06:12:00Z,28.4330,-82.6670,0.191,1111122 
COMPS,ioos:station:USF.COMPS:ARP:1,2011-02-01T06:18:00Z,28.4330,-82.6670,0.173,1111122 
COMPS,ioos:station:USF.COMPS:ARP:1,2011-02-01T06:24:00Z,28.4330,-82.6670,0.161,1111122 
COMPS,ioos:station:USF.COMPS:ARP:1,2011-02-01T06:30:00Z,28.4330,-82.6670,0.144,1111122 
COMPS,ioos:station:USF.COMPS:ARP:1,2011-02-01T06:36:00Z,28.4330,-82.6670,0.124,1111122 
COMPS,ioos:station:USF.COMPS:ARP:1,2011-02-01T06:42:00Z,28.4330,-82.6670,0.107,1111122 
COMPS,ioos:station:USF.COMPS:ARP:1,2011-02-01T06:48:00Z,28.4330,-82.6670,0.091,1111122 
COMPS,ioos:station:USF.COMPS:ARP:1,2011-02-01T06:54:00Z,28.4330,-82.6670,0.073,1111122 
COMPS,ioos:station:USF.COMPS:ARP:1,2011-02-01T07:00:00Z,28.4330,-82.6670,0.058,1111122 
COMPS,ioos:station:USF.COMPS:ARP:1,2011-02-01T07:06:00Z,28.4330,-82.6670,0.04,1111122 
COMPS,ioos:station:USF.COMPS:ARP:1,2011-02-01T07:12:00Z,28.4330,-82.6670,0.023,1111122 
COMPS,ioos:station:USF.COMPS:ARP:1,2011-02-01T07:18:00Z,28.4330,-82.6670,0.006,1111122 
COMPS,ioos:station:USF.COMPS:ARP:1,2011-02-01T07:24:00Z,28.4330,-82.6670,-0.009,1111122 
COMPS,ioos:station:USF.COMPS:ARP:1,2011-02-01T07:30:00Z,28.4330,-82.6670,-0.026,1111122 
COMPS,ioos:station:USF.COMPS:ARP:1,2011-02-01T07:36:00Z,28.4330,-82.6670,-0.043,1111122 
COMPS,ioos:station:USF.COMPS:ARP:1,2011-02-01T07:42:00Z,28.4330,-82.6670,-0.06,1111122 
COMPS,ioos:station:USF.COMPS:ARP:1,2011-02-01T07:48:00Z,28.4330,-82.6670,-0.077,1111122 
COMPS,ioos:station:USF.COMPS:ARP:1,2011-02-01T07:54:00Z,28.4330,-82.6670,-0.096,1111122 
COMPS,ioos:station:USF.COMPS:ARP:1,2011-02-01T08:00:00Z,28.4330,-82.6670,-0.114,1111122 
COMPS,ioos:station:USF.COMPS:ARP:1,2011-02-01T08:06:00Z,28.4330,-82.6670,-0.131,1111122 
COMPS,ioos:station:USF.COMPS:ARP:1,2011-02-01T08:12:00Z,28.4330,-82.6670,-0.148,1111122 
COMPS,ioos:station:USF.COMPS:ARP:1,2011-02-01T08:18:00Z,28.4330,-82.6670,-0.165,1111122 
COMPS,ioos:station:USF.COMPS:ARP:1,2011-02-01T08:24:00Z,28.4330,-82.6670,-0.183,1111122 
COMPS,ioos:station:USF.COMPS:ARP:1,2011-02-01T08:30:00Z,28.4330,-82.6670,-0.199,1111122 
COMPS,ioos:station:USF.COMPS:ARP:1,2011-02-01T08:36:00Z,28.4330,-82.6670,-0.215,1111122 
COMPS,ioos:station:USF.COMPS:ARP:1,2011-02-01T08:42:00Z,28.4330,-82.6670,-0.231,1111122 
COMPS,ioos:station:USF.COMPS:ARP:1,2011-02-01T08:48:00Z,28.4330,-82.6670,-0.247,1111122 
COMPS,ioos:station:USF.COMPS:ARP:1,2011-02-01T08:54:00Z,28.4330,-82.6670,-0.262,1111122 
COMPS,ioos:station:USF.COMPS:ARP:1,2011-02-01T09:00:00Z,28.4330,-82.6670,-0.277,1111122 
COMPS,ioos:station:USF.COMPS:ARP:1,2011-02-01T09:06:00Z,28.4330,-82.6670,-0.292,1111122 
COMPS,ioos:station:USF.COMPS:ARP:1,2011-02-01T09:12:00Z,28.4330,-82.6670,-0.307,1111122 
COMPS,ioos:station:USF.COMPS:ARP:1,2011-02-01T09:18:00Z,28.4330,-82.6670,-0.321,1111122 
COMPS,ioos:station:USF.COMPS:ARP:1,2011-02-01T09:24:00Z,28.4330,-82.6670,-0.336,1111122 
COMPS,ioos:station:USF.COMPS:ARP:1,2011-02-01T09:30:00Z,28.4330,-82.6670,-0.35,1111122 
COMPS,ioos:station:USF.COMPS:ARP:1,2011-02-01T09:36:00Z,28.4330,-82.6670,-0.364,1111122 
COMPS,ioos:station:USF.COMPS:ARP:1,2011-02-01T09:42:00Z,28.4330,-82.6670,-0.377,1111122 
COMPS,ioos:station:USF.COMPS:ARP:1,2011-02-01T09:48:00Z,28.4330,-82.6670,-0.39,1111122 
COMPS,ioos:station:USF.COMPS:ARP:1,2011-02-01T09:54:00Z,28.4330,-82.6670,-0.403,1111122 
COMPS,ioos:station:USF.COMPS:ARP:1,2011-02-01T10:00:00Z,28.4330,-82.6670,-0.415,1111122 
COMPS,ioos:station:USF.COMPS:ARP:1,2011-02-01T10:06:00Z,28.4330,-82.6670,-0.426,1111122 
COMPS,ioos:station:USF.COMPS:ARP:1,2011-02-01T10:12:00Z,28.4330,-82.6670,-0.437,1111122 
COMPS,ioos:station:USF.COMPS:ARP:1,2011-02-01T10:18:00Z,28.4330,-82.6670,-0.448,1111122 
COMPS,ioos:station:USF.COMPS:ARP:1,2011-02-01T10:24:00Z,28.4330,-82.6670,-0.459,1111122 
COMPS,ioos:station:USF.COMPS:ARP:1,2011-02-01T10:30:00Z,28.4330,-82.6670,-0.469,1111122 
COMPS,ioos:station:USF.COMPS:ARP:1,2011-02-01T10:36:00Z,28.4330,-82.6670,-0.479,1111122 
COMPS,ioos:station:USF.COMPS:ARP:1,2011-02-01T10:42:00Z,28.4330,-82.6670,-0.489,1111122 
COMPS,ioos:station:USF.COMPS:ARP:1,2011-02-01T10:48:00Z,28.4330,-82.6670,-0.498,1111122 
COMPS,ioos:station:USF.COMPS:ARP:1,2011-02-01T10:54:00Z,28.4330,-82.6670,-0.507,1111122 
COMPS,ioos:station:USF.COMPS:ARP:1,2011-02-01T11:00:00Z,28.4330,-82.6670,-0.516,1111122 
COMPS,ioos:station:USF.COMPS:ARP:1,2011-02-01T11:06:00Z,28.4330,-82.6670,-0.524,1111122 
COMPS,ioos:station:USF.COMPS:ARP:1,2011-02-01T11:12:00Z,28.4330,-82.6670,-0.531,1111122 
COMPS,ioos:station:USF.COMPS:ARP:1,2011-02-01T11:18:00Z,28.4330,-82.6670,-0.537,1111122 
COMPS,ioos:station:USF.COMPS:ARP:1,2011-02-01T11:24:00Z,28.4330,-82.6670,-0.544,1111122 
COMPS,ioos:station:USF.COMPS:ARP:1,2011-02-01T11:30:00Z,28.4330,-82.6670,-0.55,1111122 
COMPS,ioos:station:USF.COMPS:ARP:1,2011-02-01T11:36:00Z,28.4330,-82.6670,-0.556,1111122 
COMPS,ioos:station:USF.COMPS:ARP:1,2011-02-01T11:42:00Z,28.4330,-82.6670,-0.562,1111122 
COMPS,ioos:station:USF.COMPS:ARP:1,2011-02-01T11:48:00Z,28.4330,-82.6670,-0.568,1111122 
COMPS,ioos:station:USF.COMPS:ARP:1,2011-02-01T11:54:00Z,28.4330,-82.6670,-0.574,1111122 
COMPS,ioos:station:USF.COMPS:ARP:1,2011-02-01T12:00:00Z,28.4330,-82.6670,-0.579,1111122 
COMPS,ioos:station:USF.COMPS:ARP:1,2011-02-01T12:06:00Z,28.4330,-82.6670,-0.585,1111122 
COMPS,ioos:station:USF.COMPS:ARP:1,2011-02-01T12:12:00Z,28.4330,-82.6670,-0.584,1111122 
COMPS,ioos:station:USF.COMPS:ARP:1,2011-02-01T12:18:00Z,28.4330,-82.6670,-0.581,1111122 
COMPS,ioos:station:USF.COMPS:ARP:1,2011-02-01T12:24:00Z,28.4330,-82.6670,-0.586,1111122 
COMPS,ioos:station:USF.COMPS:ARP:1,2011-02-01T12:30:00Z,28.4330,-82.6670,-0.641,1111122 
COMPS,ioos:station:USF.COMPS:ARP:1,2011-02-01T12:36:00Z,28.4330,-82.6670,-0.643,1111122 
COMPS,ioos:station:USF.COMPS:ARP:1,2011-02-01T12:42:00Z,28.4330,-82.6670,-0.579,1111122 
COMPS,ioos:station:USF.COMPS:ARP:1,2011-02-01T12:48:00Z,28.4330,-82.6670,-0.578,1111122 
COMPS,ioos:station:USF.COMPS:ARP:1,2011-02-01T12:54:00Z,28.4330,-82.6670,-0.577,1111122 
COMPS,ioos:station:USF.COMPS:ARP:1,2011-02-01T13:00:00Z,28.4330,-82.6670,-0.577,1111122 
COMPS,ioos:station:USF.COMPS:ARP:1,2011-02-01T13:06:00Z,28.4330,-82.6670,-0.577,1111122 
COMPS,ioos:station:USF.COMPS:ARP:1,2011-02-01T13:12:00Z,28.4330,-82.6670,-0.577,1111122 
COMPS,ioos:station:USF.COMPS:ARP:1,2011-02-01T13:18:00Z,28.4330,-82.6670,-0.577,1111122 
COMPS,ioos:station:USF.COMPS:ARP:1,2011-02-01T13:24:00Z,28.4330,-82.6670,-0.577,1111122 
COMPS,ioos:station:USF.COMPS:ARP:1,2011-02-01T13:30:00Z,28.4330,-82.6670,-0.577,1111122 
COMPS,ioos:station:USF.COMPS:ARP:1,2011-02-01T13:36:00Z,28.4330,-82.6670,-0.576,1111122 
COMPS,ioos:station:USF.COMPS:ARP:1,2011-02-01T13:42:00Z,28.4330,-82.6670,-0.576,1111122 
COMPS,ioos:station:USF.COMPS:ARP:1,2011-02-01T13:48:00Z,28.4330,-82.6670,-0.575,1111122 
COMPS,ioos:station:USF.COMPS:ARP:1,2011-02-01T13:54:00Z,28.4330,-82.6670,-0.574,1111122 
COMPS,ioos:station:USF.COMPS:ARP:1,2011-02-01T14:00:00Z,28.4330,-82.6670,-0.574,1111122 
COMPS,ioos:station:USF.COMPS:ARP:1,2011-02-01T14:06:00Z,28.4330,-82.6670,-0.575,1111122 
COMPS,ioos:station:USF.COMPS:ARP:1,2011-02-01T14:12:00Z,28.4330,-82.6670,-0.575,1111122 
COMPS,ioos:station:USF.COMPS:ARP:1,2011-02-01T14:18:00Z,28.4330,-82.6670,-0.575,1111122 
COMPS,ioos:station:USF.COMPS:ARP:1,2011-02-01T14:24:00Z,28.4330,-82.6670,-0.574,1111122 
COMPS,ioos:station:USF.COMPS:ARP:1,2011-02-01T14:30:00Z,28.4330,-82.6670,-0.574,1111122 
COMPS,ioos:station:USF.COMPS:ARP:1,2011-02-01T14:36:00Z,28.4330,-82.6670,-0.576,1111122 
COMPS,ioos:station:USF.COMPS:ARP:1,2011-02-01T14:42:00Z,28.4330,-82.6670,-0.575,1111122 
COMPS,ioos:station:USF.COMPS:ARP:1,2011-02-01T14:48:00Z,28.4330,-82.6670,-0.575,1111122 
COMPS,ioos:station:USF.COMPS:ARP:1,2011-02-01T14:54:00Z,28.4330,-82.6670,-0.574,1111122 
COMPS,ioos:station:USF.COMPS:ARP:1,2011-02-01T15:00:00Z,28.4330,-82.6670,-0.575,1111122 
COMPS,ioos:station:USF.COMPS:ARP:1,2011-02-01T15:06:00Z,28.4330,-82.6670,-0.577,1111122 
COMPS,ioos:station:USF.COMPS:ARP:1,2011-02-01T15:12:00Z,28.4330,-82.6670,-0.576,1111122 
COMPS,ioos:station:USF.COMPS:ARP:1,2011-02-01T15:18:00Z,28.4330,-82.6670,-0.575,1111122 
COMPS,ioos:station:USF.COMPS:ARP:1,2011-02-01T15:24:00Z,28.4330,-82.6670,-0.576,1111122 
COMPS,ioos:station:USF.COMPS:ARP:1,2011-02-01T15:30:00Z,28.4330,-82.6670,-0.576,1111122 
COMPS,ioos:station:USF.COMPS:ARP:1,2011-02-01T15:36:00Z,28.4330,-82.6670,-0.642,1111122 
COMPS,ioos:station:USF.COMPS:ARP:1,2011-02-01T15:42:00Z,28.4330,-82.6670,-0.582,1111122 
COMPS,ioos:station:USF.COMPS:ARP:1,2011-02-01T15:48:00Z,28.4330,-82.6670,-0.579,1111122 
COMPS,ioos:station:USF.COMPS:ARP:1,2011-02-01T15:54:00Z,28.4330,-82.6670,-0.56,1111122 
COMPS,ioos:station:USF.COMPS:ARP:1,2011-02-01T16:00:00Z,28.4330,-82.6670,-0.54,1111122 
COMPS,ioos:station:USF.COMPS:ARP:1,2011-02-01T16:06:00Z,28.4330,-82.6670,-0.517,1111122 
COMPS,ioos:station:USF.COMPS:ARP:1,2011-02-01T16:12:00Z,28.4330,-82.6670,-0.493,1111122 
COMPS,ioos:station:USF.COMPS:ARP:1,2011-02-01T16:18:00Z,28.4330,-82.6670,-0.467,1111122 
COMPS,ioos:station:USF.COMPS:ARP:1,2011-02-01T16:24:00Z,28.4330,-82.6670,-0.44,1111122 
COMPS,ioos:station:USF.COMPS:ARP:1,2011-02-01T16:30:00Z,28.4330,-82.6670,-0.409,1111122 
COMPS,ioos:station:USF.COMPS:ARP:1,2011-02-01T16:36:00Z,28.4330,-82.6670,-0.375,1111122 
COMPS,ioos:station:USF.COMPS:ARP:1,2011-02-01T16:42:00Z,28.4330,-82.6670,-0.338,1111122 
COMPS,ioos:station:USF.COMPS:ARP:1,2011-02-01T16:48:00Z,28.4330,-82.6670,-0.302,1111122 
COMPS,ioos:station:USF.COMPS:ARP:1,2011-02-01T16:54:00Z,28.4330,-82.6670,-0.266,1111122 
COMPS,ioos:station:USF.COMPS:ARP:1,2011-02-01T17:00:00Z,28.4330,-82.6670,-0.225,1111122 
COMPS,ioos:station:USF.COMPS:ARP:1,2011-02-01T17:06:00Z,28.4330,-82.6670,-0.187,1111122 
COMPS,ioos:station:USF.COMPS:ARP:1,2011-02-01T17:12:00Z,28.4330,-82.6670,-0.149,1111122 
COMPS,ioos:station:USF.COMPS:ARP:1,2011-02-01T17:18:00Z,28.4330,-82.6670,-0.114,1111122 
COMPS,ioos:station:USF.COMPS:ARP:1,2011-02-01T17:24:00Z,28.4330,-82.6670,-0.08,1111122 
COMPS,ioos:station:USF.COMPS:ARP:1,2011-02-01T17:30:00Z,28.4330,-82.6670,-0.047,1111122 
COMPS,ioos:station:USF.COMPS:ARP:1,2011-02-01T17:36:00Z,28.4330,-82.6670,-0.019,1111122 
COMPS,ioos:station:USF.COMPS:ARP:1,2011-02-01T17:42:00Z,28.4330,-82.6670,0.008,1111122 
COMPS,ioos:station:USF.COMPS:ARP:1,2011-02-01T17:48:00Z,28.4330,-82.6670,0.033,1111122 
COMPS,ioos:station:USF.COMPS:ARP:1,2011-02-01T17:54:00Z,28.4330,-82.6670,0.053,1111122 
COMPS,ioos:station:USF.COMPS:ARP:1,2011-02-01T18:00:00Z,28.4330,-82.6670,0.072,1111122 
COMPS,ioos:station:USF.COMPS:ARP:1,2011-02-01T18:06:00Z,28.4330,-82.6670,0.088,1111122 
COMPS,ioos:station:USF.COMPS:ARP:1,2011-02-01T18:12:00Z,28.4330,-82.6670,0.104,1111122 
COMPS,ioos:station:USF.COMPS:ARP:1,2011-02-01T18:18:00Z,28.4330,-82.6670,0.107,1111122 
COMPS,ioos:station:USF.COMPS:ARP:1,2011-02-01T18:24:00Z,28.4330,-82.6670,0.112,1111122 
COMPS,ioos:station:USF.COMPS:ARP:1,2011-02-01T18:30:00Z,28.4330,-82.6670,0.121,1111122 
COMPS,ioos:station:USF.COMPS:ARP:1,2011-02-01T18:36:00Z,28.4330,-82.6670,0.125,1111122 
COMPS,ioos:station:USF.COMPS:ARP:1,2011-02-01T18:42:00Z,28.4330,-82.6670,0.129,1111122 
COMPS,ioos:station:USF.COMPS:ARP:1,2011-02-01T18:48:00Z,28.4330,-82.6670,0.127,1111122 
COMPS,ioos:station:USF.COMPS:ARP:1,2011-02-01T18:54:00Z,28.4330,-82.6670,0.129,1111122 
COMPS,ioos:station:USF.COMPS:ARP:1,2011-02-01T19:00:00Z,28.4330,-82.6670,0.125,1111122 
COMPS,ioos:station:USF.COMPS:ARP:1,2011-02-01T19:06:00Z,28.4330,-82.6670,0.115,1111122 
COMPS,ioos:station:USF.COMPS:ARP:1,2011-02-01T19:12:00Z,28.4330,-82.6670,0.102,1111122 
COMPS,ioos:station:USF.COMPS:ARP:1,2011-02-01T19:18:00Z,28.4330,-82.6670,0.095,1111122 
COMPS,ioos:station:USF.COMPS:ARP:1,2011-02-01T19:24:00Z,28.4330,-82.6670,0.081,1111122 
COMPS,ioos:station:USF.COMPS:ARP:1,2011-02-01T19:30:00Z,28.4330,-82.6670,0.072,1111122 
COMPS,ioos:station:USF.COMPS:ARP:1,2011-02-01T19:36:00Z,28.4330,-82.6670,0.059,1111122 
COMPS,ioos:station:USF.COMPS:ARP:1,2011-02-01T19:42:00Z,28.4330,-82.6670,0.044,1111122 
COMPS,ioos:station:USF.COMPS:ARP:1,2011-02-01T19:48:00Z,28.4330,-82.6670,0.042,1111122 
COMPS,ioos:station:USF.COMPS:ARP:1,2011-02-01T19:54:00Z,28.4330,-82.6670,0.028,1111122 
COMPS,ioos:station:USF.COMPS:ARP:1,2011-02-01T20:00:00Z,28.4330,-82.6670,0.014,1111122 
COMPS,ioos:station:USF.COMPS:ARP:1,2011-02-01T20:06:00Z,28.4330,-82.6670,0.009,1111122 
COMPS,ioos:station:USF.COMPS:ARP:1,2011-02-01T20:12:00Z,28.4330,-82.6670,0.003,1111122 
COMPS,ioos:station:USF.COMPS:ARP:1,2011-02-01T20:18:00Z,28.4330,-82.6670,0.0,1114422 
COMPS,ioos:station:USF.COMPS:ARP:1,2011-02-01T20:24:00Z,28.4330,-82.6670,-0.002,1111122 
COMPS,ioos:station:USF.COMPS:ARP:1,2011-02-01T20:30:00Z,28.4330,-82.6670,-0.007,1111122 
COMPS,ioos:station:USF.COMPS:ARP:1,2011-02-01T20:36:00Z,28.4330,-82.6670,-0.005,1111122 
COMPS,ioos:station:USF.COMPS:ARP:1,2011-02-01T20:42:00Z,28.4330,-82.6670,0.003,1111122 
COMPS,ioos:station:USF.COMPS:ARP:1,2011-02-01T20:48:00Z,28.4330,-82.6670,-0.004,1111122 
COMPS,ioos:station:USF.COMPS:ARP:1,2011-02-01T20:54:00Z,28.4330,-82.6670,-0.005,1111122 
COMPS,ioos:station:USF.COMPS:ARP:1,2011-02-01T21:00:00Z,28.4330,-82.6670,-0.005,1111122 
COMPS,ioos:station:USF.COMPS:ARP:1,2011-02-01T21:06:00Z,28.4330,-82.6670,-0.017,1111122 
COMPS,ioos:station:USF.COMPS:ARP:1,2011-02-01T21:12:00Z,28.4330,-82.6670,-0.029,1111122 
COMPS,ioos:station:USF.COMPS:ARP:1,2011-02-01T21:18:00Z,28.4330,-82.6670,-0.038,1111122 
COMPS,ioos:station:USF.COMPS:ARP:1,2011-02-01T21:24:00Z,28.4330,-82.6670,-0.049,1111122 
COMPS,ioos:station:USF.COMPS:ARP:1,2011-02-01T21:30:00Z,28.4330,-82.6670,-0.063,1111122 
COMPS,ioos:station:USF.COMPS:ARP:1,2011-02-01T21:36:00Z,28.4330,-82.6670,-0.082,1111122 
COMPS,ioos:station:USF.COMPS:ARP:1,2011-02-01T21:42:00Z,28.4330,-82.6670,-0.1,1111122 
COMPS,ioos:station:USF.COMPS:ARP:1,2011-02-01T21:48:00Z,28.4330,-82.6670,-0.12,1111122 
COMPS,ioos:station:USF.COMPS:ARP:1,2011-02-01T21:54:00Z,28.4330,-82.6670,-0.137,1111122 
COMPS,ioos:station:USF.COMPS:ARP:1,2011-02-01T22:00:00Z,28.4330,-82.6670,-0.151,1111122 
COMPS,ioos:station:USF.COMPS:ARP:1,2011-02-01T22:06:00Z,28.4330,-82.6670,-0.168,1111122 
COMPS,ioos:station:USF.COMPS:ARP:1,2011-02-01T22:12:00Z,28.4330,-82.6670,-0.184,1111122 
COMPS,ioos:station:USF.COMPS:ARP:1,2011-02-01T22:18:00Z,28.4330,-82.6670,-0.198,1111122 
COMPS,ioos:station:USF.COMPS:ARP:1,2011-02-01T22:24:00Z,28.4330,-82.6670,-0.212,1111122 
COMPS,ioos:station:USF.COMPS:ARP:1,2011-02-01T22:30:00Z,28.4330,-82.6670,-0.222,1111122 
COMPS,ioos:station:USF.COMPS:ARP:1,2011-02-01T22:36:00Z,28.4330,-82.6670,-0.231,1111122 
COMPS,ioos:station:USF.COMPS:ARP:1,2011-02-01T22:42:00Z,28.4330,-82.6670,-0.24,1111122 
COMPS,ioos:station:USF.COMPS:ARP:1,2011-02-01T22:48:00Z,28.4330,-82.6670,-0.246,1111122 
COMPS,ioos:station:USF.COMPS:ARP:1,2011-02-01T22:54:00Z,28.4330,-82.6670,-0.257,1111122 
COMPS,ioos:station:USF.COMPS:ARP:1,2011-02-01T23:00:00Z,28.4330,-82.6670,-0.265,1111122 
COMPS,ioos:station:USF.COMPS:ARP:1,2011-02-01T23:06:00Z,28.4330,-82.6670,-0.267,1111122 
COMPS,ioos:station:USF.COMPS:ARP:1,2011-02-01T23:12:00Z,28.4330,-82.6670,-0.263,1111122 
COMPS,ioos:station:USF.COMPS:ARP:1,2011-02-01T23:18:00Z,28.4330,-82.6670,-0.265,1111122 
COMPS,ioos:station:USF.COMPS:ARP:1,2011-02-01T23:24:00Z,28.4330,-82.6670,-0.263,1111122 
COMPS,ioos:station:USF.COMPS:ARP:1,2011-02-01T23:30:00Z,28.4330,-82.6670,-0.272,1111122 
COMPS,ioos:station:USF.COMPS:ARP:1,2011-02-01T23:36:00Z,28.4330,-82.6670,-0.272,1111122 
COMPS,ioos:station:USF.COMPS:ARP:1,2011-02-01T23:42:00Z,28.4330,-82.6670,-0.267,1111122 
COMPS,ioos:station:USF.COMPS:ARP:1,2011-02-01T23:48:00Z,28.4330,-82.6670,-0.271,1111122 
COMPS,ioos:station:USF.COMPS:ARP:1,2011-02-01T23:54:00Z,28.4330,-82.6670,-0.265,1111122 
COMPS,ioos:station:USF.COMPS:ARP:1,2011-02-02T00:00:00Z,28.4330,-82.6670,-0.261,1111122 
COMPS,ioos:station:USF.COMPS:ARP:1,2011-02-02T00:06:00Z,28.4330,-82.6670,-0.262,1111122 
COMPS,ioos:station:USF.COMPS:ARP:1,2011-02-02T00:12:00Z,28.4330,-82.6670,-0.27,1111122 
COMPS,ioos:station:USF.COMPS:ARP:1,2011-02-02T00:18:00Z,28.4330,-82.6670,-0.275,1111122 
COMPS,ioos:station:USF.COMPS:ARP:1,2011-02-02T00:24:00Z,28.4330,-82.6670,-0.276,1111122 
COMPS,ioos:station:USF.COMPS:ARP:1,2011-02-02T00:30:00Z,28.4330,-82.6670,-0.267,1111122 
COMPS,ioos:station:USF.COMPS:ARP:1,2011-02-02T00:36:00Z,28.4330,-82.6670,-0.254,1111122 
COMPS,ioos:station:USF.COMPS:ARP:1,2011-02-02T00:42:00Z,28.4330,-82.6670,-0.24,1111122 
COMPS,ioos:station:USF.COMPS:ARP:1,2011-02-02T00:48:00Z,28.4330,-82.6670,-0.221,1111122 
COMPS,ioos:station:USF.COMPS:ARP:1,2011-02-02T00:54:00Z,28.4330,-82.6670,-0.201,1111122 
COMPS,ioos:station:USF.COMPS:ARP:1,2011-02-02T01:00:00Z,28.4330,-82.6670,-0.184,1111122 
COMPS,ioos:station:USF.COMPS:ARP:1,2011-02-02T01:06:00Z,28.4330,-82.6670,-0.166,1111122 
COMPS,ioos:station:USF.COMPS:ARP:1,2011-02-02T01:12:00Z,28.4330,-82.6670,-0.149,1111122 
COMPS,ioos:station:USF.COMPS:ARP:1,2011-02-02T01:18:00Z,28.4330,-82.6670,-0.131,1111122 
COMPS,ioos:station:USF.COMPS:ARP:1,2011-02-02T01:24:00Z,28.4330,-82.6670,-0.114,1111122 
COMPS,ioos:station:USF.COMPS:ARP:1,2011-02-02T01:30:00Z,28.4330,-82.6670,-0.095,1111122 
COMPS,ioos:station:USF.COMPS:ARP:1,2011-02-02T01:36:00Z,28.4330,-82.6670,-0.077,1111122 
COMPS,ioos:station:USF.COMPS:ARP:1,2011-02-02T01:42:00Z,28.4330,-82.6670,-0.057,1111122 
COMPS,ioos:station:USF.COMPS:ARP:1,2011-02-02T01:48:00Z,28.4330,-82.6670,-0.038,1111122 
COMPS,ioos:station:USF.COMPS:ARP:1,2011-02-02T01:54:00Z,28.4330,-82.6670,-0.018,1111122 
COMPS,ioos:station:USF.COMPS:ARP:1,2011-02-02T02:00:00Z,28.4330,-82.6670,0.001,1111122 
COMPS,ioos:station:USF.COMPS:ARP:1,2011-02-02T02:06:00Z,28.4330,-82.6670,0.023,1111122 
COMPS,ioos:station:USF.COMPS:ARP:1,2011-02-02T02:12:00Z,28.4330,-82.6670,0.045,1111122 
COMPS,ioos:station:USF.COMPS:ARP:1,2011-02-02T02:18:00Z,28.4330,-82.6670,0.068,1111122 
COMPS,ioos:station:USF.COMPS:ARP:1,2011-02-02T02:24:00Z,28.4330,-82.6670,0.09,1111122 
COMPS,ioos:station:USF.COMPS:ARP:1,2011-02-02T02:30:00Z,28.4330,-82.6670,0.114,1111122 
COMPS,ioos:station:USF.COMPS:ARP:1,2011-02-02T02:36:00Z,28.4330,-82.6670,0.135,1111122 
COMPS,ioos:station:USF.COMPS:ARP:1,2011-02-02T02:42:00Z,28.4330,-82.6670,0.156,1111122 
COMPS,ioos:station:USF.COMPS:ARP:1,2011-02-02T02:48:00Z,28.4330,-82.6670,0.177,1111122 
COMPS,ioos:station:USF.COMPS:ARP:1,2011-02-02T02:54:00Z,28.4330,-82.6670,0.197,1111122 